TimeEDT,TemperatureF,Dew PointF,Humidity,Sea Level PressureIn,VisibilityMPH,Wind Direction,Wind SpeedMPH,Gust SpeedMPH,PrecipitationIn,Events,Conditions,WindDirDegrees,DateUTC
12:37 AM,53.8,50.7,89,29.96,10.0,NNE,4.6,-,N/A,,Overcast,30,2013-10-04 04:37:00
12:57 AM,53.8,50.5,89,29.96,10.0,North,4.6,-,N/A,,Overcast,10,2013-10-04 04:57:00
1:17 AM,53.8,50.4,88,29.96,10.0,NNE,5.8,-,N/A,,Overcast,20,2013-10-04 05:17:00
1:37 AM,53.4,50.4,89,29.96,10.0,North,4.6,-,N/A,,Overcast,10,2013-10-04 05:37:00
1:57 AM,53.4,50.2,89,29.97,10.0,North,4.6,-,N/A,,Overcast,10,2013-10-04 05:57:00
2:17 AM,53.6,50.0,88,29.96,10.0,NNE,6.9,-,N/A,,Overcast,20,2013-10-04 06:17:00
2:37 AM,53.8,49.5,85,29.96,10.0,NNE,6.9,-,N/A,,Overcast,30,2013-10-04 06:37:00
2:57 AM,54.0,49.5,85,29.96,10.0,NNE,8.1,-,N/A,,Overcast,30,2013-10-04 06:57:00
3:18 AM,54.1,49.1,83,29.96,10.0,NNE,5.8,-,N/A,,Overcast,30,2013-10-04 07:18:00
3:37 AM,54.5,49.1,82,29.96,10.0,NNE,8.1,-,N/A,,Overcast,30,2013-10-04 07:37:00
3:57 AM,54.5,49.3,83,29.97,10.0,NNE,6.9,-,N/A,,Overcast,30,2013-10-04 07:57:00
4:17 AM,54.5,49.3,83,29.97,10.0,NNE,8.1,-,N/A,,Overcast,30,2013-10-04 08:17:00
4:37 AM,54.5,49.3,83,29.97,10.0,NE,8.1,-,N/A,,Overcast,40,2013-10-04 08:37:00
4:57 AM,54.7,49.3,82,29.98,10.0,NE,9.2,-,N/A,,Overcast,40,2013-10-04 08:57:00
5:17 AM,54.7,49.5,83,29.97,10.0,NE,8.1,-,N/A,,Overcast,50,2013-10-04 09:17:00
5:37 AM,54.7,49.8,84,29.98,10.0,NE,6.9,-,N/A,,Overcast,40,2013-10-04 09:37:00
5:57 AM,54.9,50.2,84,29.98,10.0,NE,8.1,-,N/A,,Overcast,40,2013-10-04 09:57:00
6:17 AM,54.5,50.2,85,29.99,10.0,NE,6.9,-,N/A,,Overcast,40,2013-10-04 10:17:00
6:37 AM,54.7,50.0,84,29.99,10.0,NE,6.9,-,N/A,,Overcast,50,2013-10-04 10:37:00
6:58 AM,54.9,50.0,84,29.99,10.0,NE,8.1,-,N/A,,Overcast,50,2013-10-04 10:58:00
7:17 AM,55.4,50.0,82,30.01,10.0,NE,5.8,-,N/A,,Overcast,40,2013-10-04 11:17:00
7:37 AM,55.4,50.0,82,30.02,10.0,NE,6.9,-,N/A,,Overcast,40,2013-10-04 11:37:00
7:57 AM,55.0,50.0,83,30.02,10.0,NNE,5.8,-,N/A,,Overcast,30,2013-10-04 11:57:00
8:17 AM,55.0,50.0,83,30.02,10.0,NE,6.9,-,N/A,,Overcast,40,2013-10-04 12:17:00
8:37 AM,55.0,50.4,84,30.03,10.0,NE,5.8,-,N/A,,Overcast,40,2013-10-04 12:37:00
8:57 AM,55.0,50.2,84,30.03,10.0,NE,6.9,-,N/A,,Overcast,40,2013-10-04 12:57:00
9:17 AM,55.4,50.4,83,30.03,10.0,NE,6.9,-,N/A,,Overcast,50,2013-10-04 13:17:00
9:37 AM,55.8,50.4,82,30.03,10.0,NE,6.9,-,N/A,,Overcast,40,2013-10-04 13:37:00
9:57 AM,55.9,50.9,83,30.04,10.0,NE,6.9,-,N/A,Rain,Light Rain,40,2013-10-04 13:57:00
10:17 AM,56.3,50.4,80,30.04,10.0,ENE,9.2,-,N/A,,Overcast,60,2013-10-04 14:17:00
10:37 AM,57.2,50.5,78,30.03,10.0,NE,8.1,-,N/A,,Overcast,50,2013-10-04 14:37:00
10:57 AM,58.1,50.5,76,30.04,10.0,NE,8.1,-,N/A,,Overcast,50,2013-10-04 14:57:00
11:17 AM,58.5,50.4,74,30.05,10.0,ENE,10.4,-,N/A,,Overcast,70,2013-10-04 15:17:00
11:38 AM,58.5,50.2,74,30.06,10.0,ENE,11.5,-,N/A,,Overcast,70,2013-10-04 15:38:00
11:57 AM,59.0,50.4,73,30.06,10.0,ENE,9.2,-,N/A,,Overcast,70,2013-10-04 15:57:00
12:17 PM,59.0,50.2,73,30.07,10.0,ENE,9.2,-,N/A,,Overcast,70,2013-10-04 16:17:00
12:37 PM,59.2,50.2,72,30.07,10.0,ENE,11.5,17.3,N/A,,Overcast,70,2013-10-04 16:37:00
12:57 PM,59.4,50.5,73,30.07,10.0,ENE,10.4,-,N/A,,Overcast,70,2013-10-04 16:57:00
1:17 PM,59.9,50.4,71,30.08,10.0,ENE,8.1,-,N/A,,Overcast,60,2013-10-04 17:17:00
1:37 PM,59.5,50.2,71,30.08,10.0,ENE,12.7,16.1,N/A,,Overcast,60,2013-10-04 17:37:00
1:57 PM,59.4,50.0,71,30.07,10.0,NE,9.2,-,N/A,,Overcast,50,2013-10-04 17:57:00
2:17 PM,60.1,50.5,71,30.07,10.0,ENE,9.2,-,N/A,,Overcast,60,2013-10-04 18:17:00
2:37 PM,59.9,50.2,70,30.07,10.0,NE,8.1,-,N/A,,Overcast,50,2013-10-04 18:37:00
2:57 PM,59.9,50.0,70,30.07,10.0,NE,9.2,-,N/A,,Overcast,50,2013-10-04 18:57:00
3:18 PM,59.9,50.4,71,30.07,10.0,ENE,6.9,-,N/A,,Overcast,60,2013-10-04 19:18:00
3:37 PM,59.5,50.4,72,30.07,10.0,ENE,5.8,-,N/A,,Overcast,60,2013-10-04 19:37:00
3:57 PM,59.9,50.7,72,30.07,10.0,NE,5.8,-,N/A,,Overcast,50,2013-10-04 19:57:00
4:17 PM,60.1,51.1,72,30.06,10.0,ENE,8.1,-,N/A,,Overcast,60,2013-10-04 20:17:00
4:37 PM,60.4,51.6,73,30.06,10.0,ENE,6.9,-,N/A,,Overcast,60,2013-10-04 20:37:00
4:57 PM,60.3,50.9,71,30.07,10.0,ENE,4.6,-,N/A,,Overcast,70,2013-10-04 20:57:00
5:17 PM,59.9,50.4,71,30.08,10.0,East,5.8,-,N/A,,Overcast,80,2013-10-04 21:17:00
5:37 PM,59.2,50.5,73,30.08,10.0,East,5.8,-,N/A,,Overcast,80,2013-10-04 21:37:00
5:57 PM,58.6,52.9,81,30.09,10.0,East,6.9,-,N/A,,Overcast,100,2013-10-04 21:57:00
6:17 PM,58.1,53.2,84,30.09,10.0,ESE,6.9,-,N/A,,Overcast,110,2013-10-04 22:17:00
6:37 PM,57.4,53.2,86,30.09,10.0,East,5.8,-,N/A,,Overcast,90,2013-10-04 22:37:00
6:58 PM,57.2,53.2,87,30.09,10.0,East,4.6,-,N/A,Rain,Light Rain,80,2013-10-04 22:58:00
7:17 PM,56.7,53.6,89,30.10,10.0,Calm,Calm,-,N/A,,Overcast,0,2013-10-04 23:17:00
7:37 PM,56.5,53.6,90,30.09,10.0,Calm,Calm,-,N/A,,Overcast,0,2013-10-04 23:37:00
7:57 PM,57.2,52.2,83,30.10,10.0,NE,4.6,-,N/A,,Overcast,50,2013-10-04 23:57:00
8:17 PM,56.5,51.8,84,30.09,10.0,Calm,Calm,-,N/A,,Overcast,0,2013-10-05 00:17:00
8:37 PM,56.7,51.1,82,30.09,10.0,ENE,4.6,-,N/A,,Overcast,60,2013-10-05 00:37:00
8:57 PM,56.5,50.9,82,30.10,10.0,ENE,4.6,-,N/A,,Overcast,60,2013-10-05 00:57:00
9:17 PM,56.5,50.9,82,30.10,10.0,East,4.6,-,N/A,Rain,Light Rain,80,2013-10-05 01:17:00
9:37 PM,56.5,50.9,82,30.10,10.0,East,4.6,-,N/A,,Overcast,90,2013-10-05 01:37:00
9:57 PM,56.5,50.9,82,30.10,10.0,East,6.9,-,N/A,,Overcast,80,2013-10-05 01:57:00
10:17 PM,56.7,50.9,81,30.11,10.0,ENE,6.9,-,N/A,Rain,Light Rain,70,2013-10-05 02:17:00
10:37 PM,56.5,50.9,82,30.12,10.0,Calm,Calm,-,N/A,,Overcast,0,2013-10-05 02:37:00
10:57 PM,56.3,50.9,82,30.12,10.0,NE,5.8,-,N/A,,Overcast,50,2013-10-05 02:57:00
11:17 PM,55.4,51.1,85,30.12,10.0,NNE,4.6,-,N/A,,Overcast,30,2013-10-05 03:17:00
11:37 PM,55.8,50.9,84,30.12,10.0,NE,5.8,-,N/A,,Overcast,50,2013-10-05 03:37:00
11:57 PM,54.7,51.8,90,30.11,10.0,NE,6.9,-,N/A,Rain,Rain,50,2013-10-05 03:57:00